Location: Brompton
(51.4000°N, 0.5333°E)
Time: 16:00:49
(UTC+00:00)

Cosmos 2082 Rocket - Pass Details

Date: 11 May 2021
Orbit: 834 x 853 km, 71.0° (Epoch: 21 June)

Event Time Altitude Azimuth Distance (km) Brightness Sun altitude
Rises 23:19:21 0° 317° (NW) 3,393 6.3 -20.0°
Reaches altitude 10° 23:22:55 10° 294° (WNW) 2,454 5.0 -20.1°
Maximum altitude 23:25:48 14° 263° (W) 2,151 4.3 -20.2°
Enters shadow 23:28:11 11° 236° (WSW) 2,359 4.3 -20.2°
